• In Portugal
  • List of Countries
  • For 7 days
  • Water Temperature
  • Satellite Maps
  • Weather Map
  • Weather Widgets
  • user-avatar
    Login

    Hourly Weather Uige

    Today, 11 December, Monday

    Time Temperature Precipitation Wind Pressure Humidity
    00:00 +19°C° 0.2 mm 0 mps 691 mmHg 98%
    01:00 +21°C° 0 mm 1 mps 691 mmHg 99%
    02:00 +21°C° 0.1 mm 1 mps 691 mmHg 99%
    03:00 +21°C° 0.1 mm 1 mps 691 mmHg 99%
    04:00 +21°C° 0.1 mm 1 mps 690 mmHg 99%
    05:00 +21°C° 0 mm 1 mps 691 mmHg 98%
    06:00 +19°C° 0 mm 0 mps 691 mmHg 98%
    07:00 +20°C° 0 mm 0 mps 692 mmHg 98%
    08:00 +23°C° 0.3 mm 1 mps 692 mmHg 91%
    09:00 +25°C° 0.3 mm 1 mps 692 mmHg 85%
    10:00 +26°C° 0.3 mm 1 mps 692 mmHg 79%
    11:00 +27°C° 0.9 mm 2 mps 692 mmHg 81%
    12:00 +27°C° 0.9 mm 2 mps 691 mmHg 82%
    13:00 +27°C° 0.9 mm 2 mps 691 mmHg 84%
    14:00 +27°C° 0.8 mm 2 mps 690 mmHg 86%
    15:00 +27°C° 0.8 mm 2 mps 690 mmHg 87%
    16:00 +26°C° 0.8 mm 2 mps 689 mmHg 89%
    17:00 +25°C° 0.5 mm 1 mps 689 mmHg 92%
    18:00 +24°C° 0.5 mm 1 mps 689 mmHg 95%
    19:00 +23°C° 0.5 mm 1 mps 689 mmHg 98%
    20:00 +23°C° 0.7 mm 1 mps 690 mmHg 98%
    21:00 +20°C° 0.7 mm 0 mps 691 mmHg 98%
    22:00 +20°C° 0.7 mm 0 mps 691 mmHg 98%
    23:00 +20°C° 0.8 mm 0 mps 691 mmHg 98%

    Tomorrow, 12 December, Tuesday

    Time Temperature Precipitation Wind Pressure Humidity
    00:00 +22°C° 0.8 mm 1 mps 691 mmHg 98%
    01:00 +22°C° 0.8 mm 1 mps 691 mmHg 98%
    02:00 +22°C° 0.8 mm 1 mps 691 mmHg 98%
    03:00 +22°C° 0.8 mm 1 mps 690 mmHg 98%
    04:00 +20°C° 0.8 mm 0 mps 690 mmHg 98%
    05:00 +22°C° 0.8 mm 1 mps 690 mmHg 98%
    06:00 +22°C° 0.8 mm 1 mps 690 mmHg 98%
    07:00 +22°C° 0.8 mm 1 mps 691 mmHg 97%
    08:00 +23°C° 0.4 mm 1 mps 691 mmHg 95%
    09:00 +24°C° 0.4 mm 1 mps 691 mmHg 92%
    10:00 +24°C° 0.4 mm 1 mps 691 mmHg 89%
    11:00 +26°C° 0.3 mm 1 mps 691 mmHg 83%
    12:00 +27°C° 0.3 mm 1 mps 691 mmHg 77%
    13:00 +28°C° 0.3 mm 1 mps 690 mmHg 72%
    14:00 +28°C° 0.2 mm 1 mps 690 mmHg 72%
    15:00 +28°C° 0.2 mm 1 mps 690 mmHg 73%
    16:00 +28°C° 0.2 mm 1 mps 689 mmHg 74%
    17:00 +26°C° 0.1 mm 1 mps 689 mmHg 80%
    18:00 +24°C° 0.1 mm 1 mps 689 mmHg 86%
    19:00 +23°C° 0.1 mm 1 mps 690 mmHg 92%
    20:00 +22°C° 0 mm 1 mps 690 mmHg 94%
    21:00 +22°C° 0 mm 1 mps 691 mmHg 96%
    22:00 +21°C° 0 mm 1 mps 691 mmHg 97%
    23:00 +21°C° 0 mm 1 mps 691 mmHg 98%

    Day after tomorrow, 13 December, Wednesday

    Time Temperature Precipitation Wind Pressure Humidity
    00:00 +21°C° 0 mm 1 mps 691 mmHg 98%
    01:00 +21°C° 0 mm 1 mps 691 mmHg 98%
    02:00 +21°C° 0 mm 1 mps 691 mmHg 98%
    03:00 +21°C° 0 mm 1 mps 691 mmHg 98%
    04:00 +21°C° 0 mm 1 mps 690 mmHg 99%
    05:00 +22°C° 0 mm 1 mps 691 mmHg 98%
    06:00 +22°C° 0 mm 1 mps 691 mmHg 97%
    07:00 +23°C° 0 mm 1 mps 691 mmHg 96%
    08:00 +24°C° 0.2 mm 1 mps 692 mmHg 88%
    09:00 +26°C° 0.2 mm 1 mps 692 mmHg 80%
    10:00 +28°C° 0.2 mm 1 mps 692 mmHg 73%
    11:00 +28°C° 1.1 mm 1 mps 692 mmHg 75%
    12:00 +29°C° 1.1 mm 1 mps 691 mmHg 77%
    13:00 +29°C° 1.1 mm 1 mps 690 mmHg 79%
    14:00 +28°C° 1.5 mm 1 mps 690 mmHg 81%
    15:00 +28°C° 1.5 mm 1 mps 689 mmHg 84%
    16:00 +27°C° 1.5 mm 1 mps 689 mmHg 87%
    17:00 +26°C° 1.2 mm 1 mps 689 mmHg 89%
    18:00 +24°C° 1.2 mm 1 mps 690 mmHg 91%
    19:00 +23°C° 1.2 mm 1 mps 690 mmHg 94%
    20:00 +23°C° 1 mm 1 mps 691 mmHg 95%
    21:00 +23°C° 1 mm 1 mps 691 mmHg 96%
    22:00 +22°C° 1 mm 1 mps 692 mmHg 97%
    23:00 +22°C° 0.5 mm 1 mps 692 mmHg 97%

    14 December, Thursday

    Time Temperature Precipitation Wind Pressure Humidity
    00:00 +22°C° 0.5 mm 1 mps 691 mmHg 98%
    01:00 +21°C° 0.5 mm 2 mps 691 mmHg 98%
    02:00 +21°C° 0 mm 2 mps 691 mmHg 98%
    03:00 +22°C° 0 mm 1 mps 691 mmHg 98%
    04:00 +22°C° 0 mm 1 mps 690 mmHg 98%
    05:00 +22°C° 0 mm 1 mps 691 mmHg 97%
    06:00 +22°C° 0 mm 1 mps 691 mmHg 96%
    07:00 +22°C° 0 mm 1 mps 692 mmHg 95%
    08:00 +23°C° 0 mm 1 mps 692 mmHg 91%
    09:00 +24°C° 0 mm 1 mps 692 mmHg 87%
    10:00 +25°C° 0 mm 1 mps 692 mmHg 84%
    11:00 +26°C° 0 mm 1 mps 692 mmHg 80%
    12:00 +26°C° 0 mm 1 mps 691 mmHg 76%
    13:00 +27°C° 0 mm 1 mps 690 mmHg 72%
    14:00 +27°C° 0.4 mm 1 mps 690 mmHg 77%
    15:00 +26°C° 0.4 mm 1 mps 690 mmHg 82%
    16:00 +26°C° 0.4 mm 1 mps 689 mmHg 87%
    17:00 +25°C° 0.4 mm 1 mps 690 mmHg 90%
    18:00 +24°C° 0.4 mm 1 mps 690 mmHg 92%
    19:00 +23°C° 0.4 mm 1 mps 690 mmHg 95%
    20:00 +22°C° 1 mm 1 mps 691 mmHg 96%
    21:00 +20°C° 1 mm 0 mps 691 mmHg 96%
    22:00 +20°C° 1 mm 0 mps 691 mmHg 97%
    23:00 +20°C° 0 mm 0 mps 691 mmHg 97%

    15 December, Friday

    Time Temperature Precipitation Wind Pressure Humidity
    00:00 +20°C° 0 mm 0 mps 690 mmHg 97%
    01:00 +19°C° 0 mm 0 mps 690 mmHg 98%
    02:00 +19°C° 0 mm 0 mps 690 mmHg 98%
    03:00 +20°C° 0 mm 0 mps 690 mmHg 98%
    04:00 +20°C° 0 mm 0 mps 690 mmHg 98%
    05:00 +20°C° 0 mm 0 mps 690 mmHg 98%
    06:00 +22°C° 0 mm 1 mps 690 mmHg 97%
    07:00 +23°C° 0 mm 1 mps 691 mmHg 97%
    08:00 +25°C° 0.1 mm 1 mps 691 mmHg 89%
    09:00 +27°C° 0.1 mm 1 mps 692 mmHg 81%
    10:00 +28°C° 0.1 mm 1 mps 692 mmHg 73%
    11:00 +29°C° 1.2 mm 1 mps 692 mmHg 73%
    12:00 +29°C° 1.2 mm 1 mps 691 mmHg 73%
    13:00 +29°C° 1.2 mm 1 mps 690 mmHg 73%
    14:00 +29°C° 1.1 mm 1 mps 690 mmHg 79%
    15:00 +28°C° 1.1 mm 1 mps 689 mmHg 84%
    16:00 +27°C° 1.1 mm 1 mps 689 mmHg 89%
    17:00 +26°C° 0.5 mm 1 mps 689 mmHg 91%
    18:00 +24°C° 0.5 mm 1 mps 689 mmHg 93%
    19:00 +21°C° 0.5 mm 0 mps 689 mmHg 94%
    20:00 +21°C° 0.2 mm 0 mps 690 mmHg 95%
    21:00 +20°C° 0.2 mm 0 mps 690 mmHg 95%
    22:00 +20°C° 0.2 mm 0 mps 691 mmHg 95%
    23:00 +22°C° 0.1 mm 1 mps 690 mmHg 96%

    16 December, Saturday

    Time Temperature Precipitation Wind Pressure Humidity
    00:00 +21°C° 0.1 mm 1 mps 690 mmHg 97%
    01:00 +21°C° 0.1 mm 1 mps 690 mmHg 98%
    02:00 +21°C° 1 mm 1 mps 689 mmHg 98%
    03:00 +21°C° 1 mm 1 mps 689 mmHg 98%
    04:00 +22°C° 1 mm 1 mps 689 mmHg 99%
    05:00 +22°C° 0.3 mm 1 mps 690 mmHg 99%
    06:00 +22°C° 0.3 mm 1 mps 690 mmHg 99%
    07:00 +22°C° 0.3 mm 1 mps 691 mmHg 98%
    08:00 +22°C° 0.1 mm 1 mps 691 mmHg 97%
    09:00 +23°C° 0.1 mm 1 mps 691 mmHg 95%
    10:00 +23°C° 0.1 mm 1 mps 692 mmHg 93%
    11:00 +25°C° 0.1 mm 1 mps 691 mmHg 83%
    12:00 +27°C° 0.1 mm 1 mps 691 mmHg 73%
    13:00 +28°C° 0.1 mm 2 mps 691 mmHg 63%
    14:00 +28°C° 0.2 mm 1 mps 690 mmHg 65%
    15:00 +28°C° 0.2 mm 1 mps 690 mmHg 67%
    16:00 +28°C° 0.2 mm 1 mps 689 mmHg 68%
    17:00 +26°C° 0.1 mm 1 mps 690 mmHg 74%
    18:00 +25°C° 0.1 mm 1 mps 690 mmHg 79%
    19:00 +21°C° 0.1 mm 0 mps 690 mmHg 84%
    20:00 +21°C° 0 mm 0 mps 690 mmHg 84%
    21:00 +21°C° 0 mm 0 mps 691 mmHg 83%
    22:00 +21°C° 0 mm 0 mps 691 mmHg 83%
    23:00 +20°C° 0 mm 0 mps 691 mmHg 84%
    Show more